Regional Weather Roundup
Issued by NWS

Home | Current Version | Previous Version | Text Only | Print | Product List | Glossary Off
Versions: 1 2 3 4 5 6 7 8 9 10 11 12 13 14 15 16 17 18 19 20 21 22 23 24 25 26 27 28 29 30 31 32 33 34 35 36 37 38 39 40 41 42 43 44 45 46 47 48 49 50

000
ASUS43 KDTX 190210
RWRMI
MICHIGAN HOURLY REGIONAL WEATHER ROUNDUP
NATIONAL WEATHER SERVICE DETROIT/PONTIAC MI
900 PM EST THU DEC 18 2014

NOTE: "FAIR" INDICATES FEW OR NO CLOUDS BELOW 12,000 FEET WITH NO
SIGNIFICANT WEATHER AND/OR OBSTRUCTION TO VISIBILITY.

MIZ047>049-052>055-059>063-066>070-074>076-081>083-190300-
SOUTHEAST LOWER MICHIGAN

CITY           SKY/WX    TMP DP  RH WIND       PRES   REMARKS
ADRIAN         CLOUDY    29  26  89 W7        30.20S WCI  22
ALMA           CLOUDY    27  23  84 N6        30.21R WCI  21
ANN ARBOR      CLOUDY    30  29  96 W8        30.17S FOG     WCI  22
BAD AXE        CLOUDY    26  23  91 NW6       30.18S WCI  19
CARO           CLOUDY    26  22  85 N6        30.19S WCI  19
DETROIT CITY   CLOUDY    33  28  81 N6        30.17F WCI  28
DETROIT        FRZ DRZL  31  29  92 W5        30.18S WCI  26
FLINT          CLOUDY    29  25  85 NE8       30.19R WCI  21
GROSSE ILE     CLOUDY    32  28  86 W5        30.16F FOG     WCI  27
HILLSDALE      CLOUDY    28  28  98 W8        30.17F FOG     WCI  20
HOWELL         MIX PCPN  29  28  97 N3        30.17S

CITY           SKY/WX    TMP DP  RH WIND       PRES   REMARKS
JACKSON        CLOUDY    28  26  92 W6        30.17F FOG     WCI  22
LAMBERTVILLE   CLOUDY    32  28  86 W7        30.19F WCI  26
LANSING        CLOUDY    30  26  85 CALM      30.19S
LAPEER         CLOUDY    26  25  95 N8        30.18S WCI  18
MASON          CLOUDY    29  28  94 W6        30.18S FOG     WCI  23
MONROE         CLOUDY    30  28  93 W7        30.17S FOG     WCI  23
MT. CLEMENS    CLOUDY    28  28 100 N9        30.16S WCI  20
PONTIAC        FLURRIES  28  26  92 N6        30.15S WCI  22
PORT HOPE        N/A     30  23  75 N12       30.16S WCI  20
PORT HURON     CLOUDY    27  25  93 NW8       30.18S WCI  18
TRI CITIES     CLOUDY    28  20  71 N7        30.21S WCI  21
TROY           CLOUDY    32  28  84 NW7       30.18S WCI  26
SAGINAW HB     CLOUDY    28  25  86 N7        30.20F WCI  21
$$
MIZ043>046-050>051-056>058-064>065-071>073-077>080-190300-
SOUTHWEST LOWER MICHIGAN

CITY           SKY/WX    TMP DP  RH WIND       PRES   REMARKS
BATTLE CREEK   CLOUDY    29  25  85 SW7       30.19S FOG     WCI  22
BENTON HARBOR  LGT SNOW  30  28  92 W14       30.21F FOG     WCI  19
BIG RAPIDS     CLOUDY    27  22  84 N3        30.18S
COLDWATER      CLOUDY    28  26  94 W7        30.19F FOG     WCI  20
FREMONT        CLOUDY    28  21  74 NE5       30.20S WCI  23
HOLLAND        CLOUDY    33  27  78 VRB3      30.20S
GRAND RAPIDS   CLOUDY    30  24  78 N6        30.19S WCI  24
IONIA          CLOUDY    30  26  84 N6        30.18R WCI  24
KALAMAZOO      CLOUDY    28  23  81 SW12      30.19F WCI  18
LUDINGTON      CLEAR     23  19  83 CALM      30.23R
MARSHALL       CLOUDY    27  25  93 W7        30.18F FOG     WCI  20
MOUNT PLEASANT CLOUDY    28  22  77 N5        30.19S WCI  23
MUSKEGON       CLOUDY    30  23  75 N7        30.22S WCI  23
SOUTH HAVEN    CLOUDY    32  30  91 N3        30.20S
$$
MIZ016>042-190300-
NORTHERN LOWER MICHIGAN

CITY           SKY/WX    TMP DP  RH WIND       PRES   REMARKS
ALPENA         CLEAR     17  14  88 W6        30.21S WCI   9
BEAVER ISLAND  CLEAR     15  14  95 CALM      30.24S
BELLAIRE       CLEAR     15  13  92 CALM      30.24S
CADILLAC       CLEAR     14  12  92 CALM      30.16F
CHARLEVOIX     CLEAR     22  16  78 E3        30.26S
FRANKFORT      CLEAR     17  16  95 CALM      30.23S
GAYLORD        CLEAR      8   7  95 CALM      30.18S
GRAYLING       CLOUDY    18  17  94 NE6       30.20S WCI  10
HARBOR SPRINGS CLEAR     13  10  87 CALM      30.22F
HOUGHTON LAKE  CLOUDY    20  16  84 NE6       30.19S WCI  12
MANISTEE       CLEAR     18  12  79 CALM      30.23S
OSCODA         CLOUDY    24  20  82 NW10      30.20R WCI  14
PELLSTON       CLEAR      7   4  87 CALM      30.23S
ROGERS CITY    CLEAR     15  13  93 W3        30.22S
TRAVERSE CITY  CLEAR     21  17  84 E5        30.22S WCI  15
$$
MIZ007>008-015-190300-
EASTERN UPPER MICHIGAN

CITY           SKY/WX    TMP DP  RH WIND       PRES   REMARKS
KINROSS        PTCLDY    16  12  86 NE5       30.22S WCI   9
MACKINAC ISLAN CLEAR     22  16  76 N7        30.22S WCI  14
NEWBERRY       CLEAR     17  16  94 CALM      30.22S
S. S. MARIE    PTCLDY    18   9  68 CALM      30.21S
MUNISING         N/A     18  13  80 S7        30.25S WCI   9
$$
MIZ004>006-011>014-085-190300-
CENTRAL UPPER MICHIGAN

CITY           SKY/WX    TMP DP  RH WIND       PRES   REMARKS
MANISTIQUE     CLEAR     19  16  91 NW5       30.24S WCI  12
ESCANABA       CLEAR     19  14  79 N3        30.25S
MENOMINEE      CLEAR     21  14  73 N5        30.25S WCI  15
SAWYER-GWINN   CLEAR     16  14  93 CALM      30.23R
$$
MIZ001>003-009>011-084-190300-
WESTERN UPPER MICHIGAN

CITY           SKY/WX    TMP DP  RH WIND       PRES   REMARKS
IRON MOUNTAIN  PTCLDY    12   8  84 CALM      30.22S FOG
HOUGHTON       CLEAR      7   6  96 N3        30.24S
COPPER HARBOR    N/A     17  13  84 W6        30.27S WCI   9
IRONWOOD       CLOUDY    18  18 100 CALM      30.22S
$$

ABBREVIATIONS USED IN REMARKS
   TC - TEMPERATURE IN CELSIUS
  WCI - WIND CHILL INDEX
   HX - HEAT INDEX
  VSB - VISIBILITY



USA.gov is the U.S. government's official web portal to all federal, state and local government web resources and services.